Time,TemperatureF,DewpointF,PressureIn,WindDirection,WindDirectionDegrees,WindSpeedMPH,WindSpeedGustMPH,Humidity,HourlyPrecipIn,Conditions,Clouds,dailyrainin,SolarRadiationWatts/m^2,SoftwareType,DateUTC
2013-05-01 00:02:00,17.0,15.0,-100.00,North,2,3.0,8.0,92,0.00,,,0.10,0.000000,,2013-05-01 06:02:00,
2013-05-01 00:11:00,17.0,15.0,-100.00,North,2,3.0,8.0,92,0.00,,,0.10,0.000000,,2013-05-01 06:11:00,
2013-05-01 00:22:00,17.0,15.0,-100.00,North,2,3.0,8.0,92,0.00,,,0.10,0.000000,,2013-05-01 06:22:00,
2013-05-01 00:32:00,17.0,15.0,-100.00,North,2,3.0,8.0,92,0.00,,,0.10,0.000000,,2013-05-01 06:32:00,
2013-05-01 00:40:00,17.0,15.0,-100.00,NW,321,3.0,8.0,92,0.00,,,0.10,0.000000,,2013-05-01 06:40:00,
2013-05-01 01:01:00,17.0,15.0,-100.00,NW,321,3.0,8.0,92,0.00,,,0.10,0.000000,,2013-05-01 07:01:00,
2013-05-01 01:11:00,17.0,15.0,-100.00,NW,321,3.0,8.0,92,0.00,,,0.10,0.000000,,2013-05-01 07:11:00,
2013-05-01 01:21:00,17.0,15.0,-100.00,NW,321,3.0,8.0,92,0.00,,,0.10,0.000000,,2013-05-01 07:21:00,
2013-05-01 01:32:00,17.0,15.0,-100.00,NW,321,3.0,8.0,92,0.00,,,0.10,0.000000,,2013-05-01 07:32:00,
2013-05-01 01:40:00,16.0,14.0,-100.00,North,352,2.0,7.0,91,0.00,,,0.10,0.000000,,2013-05-01 07:40:00,
2013-05-01 02:01:00,16.0,14.0,-100.00,North,352,2.0,7.0,91,0.00,,,0.10,0.000000,,2013-05-01 08:01:00,
2013-05-01 02:11:00,16.0,14.0,-100.00,North,352,2.0,7.0,91,0.00,,,0.10,0.000000,,2013-05-01 08:11:00,
2013-05-01 02:21:00,16.0,14.0,-100.00,North,352,2.0,7.0,91,0.00,,,0.10,0.000000,,2013-05-01 08:21:00,
2013-05-01 02:31:00,16.0,14.0,-100.00,North,352,2.0,7.0,91,0.00,,,0.10,0.000000,,2013-05-01 08:31:00,
2013-05-01 02:40:00,16.0,14.0,-100.00,ESE,106,2.0,7.0,91,0.00,,,0.10,0.000000,,2013-05-01 08:40:00,
2013-05-01 03:01:00,16.0,14.0,-100.00,ESE,106,2.0,7.0,91,0.00,,,0.10,0.000000,,2013-05-01 09:01:00,
2013-05-01 03:11:00,16.0,14.0,-100.00,ESE,106,2.0,7.0,91,0.00,,,0.10,0.000000,,2013-05-01 09:11:00,
2013-05-01 03:21:00,16.0,14.0,-100.00,ESE,106,2.0,7.0,91,0.00,,,0.10,0.000000,,2013-05-01 09:21:00,
2013-05-01 03:33:00,16.0,14.0,-100.00,ESE,106,2.0,7.0,91,0.00,,,0.10,0.000000,,2013-05-01 09:33:00,
2013-05-01 03:40:00,15.0,13.0,-100.00,North,350,4.0,10.0,90,0.00,,,0.10,0.000000,,2013-05-01 09:40:00,
2013-05-01 04:02:00,15.0,13.0,-100.00,North,350,4.0,10.0,90,0.00,,,0.10,0.000000,,2013-05-01 10:02:00,
2013-05-01 04:12:00,15.0,13.0,-100.00,North,350,4.0,10.0,90,0.00,,,0.10,0.000000,,2013-05-01 10:12:00,
2013-05-01 04:22:00,15.0,13.0,-100.00,North,350,4.0,10.0,90,0.00,,,0.10,0.000000,,2013-05-01 10:22:00,
2013-05-01 04:32:00,15.0,13.0,-100.00,North,350,4.0,10.0,90,0.00,,,0.10,0.000000,,2013-05-01 10:32:00,
2013-05-01 04:40:00,14.0,12.0,-100.00,North,2,3.0,8.0,90,0.00,,,0.10,0.000000,,2013-05-01 10:40:00,
2013-05-01 05:02:00,14.0,12.0,-100.00,North,2,3.0,8.0,90,0.00,,,0.10,0.000000,,2013-05-01 11:02:00,
2013-05-01 05:11:00,14.0,12.0,-100.00,North,2,3.0,8.0,90,0.00,,,0.10,0.000000,,2013-05-01 11:11:00,
2013-05-01 05:22:00,14.0,12.0,-100.00,North,2,3.0,8.0,90,0.00,,,0.10,0.000000,,2013-05-01 11:22:00,
2013-05-01 05:32:00,14.0,12.0,-100.00,North,2,3.0,8.0,90,0.00,,,0.10,0.000000,,2013-05-01 11:32:00,
2013-05-01 05:40:00,14.0,12.0,-100.00,North,11,2.0,8.0,90,0.00,,,0.10,0.000000,,2013-05-01 11:40:00,
2013-05-01 06:01:00,14.0,12.0,-100.00,North,11,2.0,8.0,90,0.00,,,0.10,0.000000,,2013-05-01 12:01:00,
2013-05-01 06:11:00,14.0,12.0,-100.00,North,11,2.0,8.0,90,0.00,,,0.10,0.000000,,2013-05-01 12:11:00,
2013-05-01 06:21:00,14.0,12.0,-100.00,North,11,2.0,8.0,90,0.00,,,0.10,0.000000,,2013-05-01 12:21:00,
2013-05-01 06:31:00,14.0,12.0,-100.00,North,11,2.0,8.0,90,0.00,,,0.10,0.000000,,2013-05-01 12:31:00,
2013-05-01 06:40:00,14.0,12.0,-100.00,ESE,122,2.0,7.0,90,0.00,,,-99.99,0.000000,,2013-05-01 12:40:00,
2013-05-01 07:01:00,14.0,12.0,-100.00,ESE,122,2.0,7.0,90,0.00,,,-99.99,0.000000,,2013-05-01 13:01:00,
2013-05-01 07:11:00,14.0,12.0,-100.00,ESE,122,2.0,7.0,90,0.00,,,-99.99,0.000000,,2013-05-01 13:11:00,
2013-05-01 07:21:00,14.0,12.0,-100.00,ESE,122,2.0,7.0,90,0.00,,,-99.99,0.000000,,2013-05-01 13:21:00,
2013-05-01 07:31:00,14.0,12.0,-100.00,ESE,122,2.0,7.0,90,0.00,,,-99.99,0.000000,,2013-05-01 13:31:00,
2013-05-01 07:40:00,15.0,13.0,-100.00,North,4,2.0,6.0,90,0.00,,,0.10,4.000000,,2013-05-01 13:40:00,
2013-05-01 08:02:00,15.0,13.0,-100.00,North,4,2.0,6.0,90,0.00,,,0.10,4.000000,,2013-05-01 14:02:00,
2013-05-01 08:11:00,15.0,13.0,-100.00,North,4,2.0,6.0,90,0.00,,,0.10,4.000000,,2013-05-01 14:11:00,
2013-05-01 08:21:00,15.0,13.0,-100.00,North,4,2.0,6.0,90,0.00,,,0.10,4.000000,,2013-05-01 14:21:00,
2013-05-01 08:31:00,15.0,13.0,-100.00,North,4,2.0,6.0,90,0.00,,,0.10,4.000000,,2013-05-01 14:31:00,
2013-05-01 08:40:00,18.0,16.0,-100.00,North,2,2.0,6.0,91,0.00,,,0.10,13.000000,,2013-05-01 14:40:00,
2013-05-01 09:01:00,18.0,16.0,-100.00,North,2,2.0,6.0,91,0.00,,,0.10,13.000000,,2013-05-01 15:01:00,
2013-05-01 09:11:00,18.0,16.0,-100.00,North,2,2.0,6.0,91,0.00,,,0.10,13.000000,,2013-05-01 15:11:00,
2013-05-01 09:21:00,18.0,16.0,-100.00,North,2,2.0,6.0,91,0.00,,,0.10,13.000000,,2013-05-01 15:21:00,
2013-05-01 09:33:00,18.0,16.0,-100.00,North,2,2.0,6.0,91,0.00,,,0.10,13.000000,,2013-05-01 15:33:00,
2013-05-01 09:40:00,20.0,18.0,-100.00,SSW,208,3.0,7.0,90,0.00,,,0.09,21.000000,,2013-05-01 15:40:00,
2013-05-01 10:03:00,20.0,18.0,-100.00,SSW,208,3.0,7.0,90,0.00,,,0.09,21.000000,,2013-05-01 16:03:00,
2013-05-01 10:12:00,20.0,18.0,-100.00,SSW,208,3.0,7.0,90,0.00,,,0.09,21.000000,,2013-05-01 16:12:00,
2013-05-01 10:22:00,20.0,18.0,-100.00,SSW,208,3.0,7.0,90,0.00,,,0.09,21.000000,,2013-05-01 16:22:00,
2013-05-01 10:31:00,20.0,18.0,-100.00,SSW,208,3.0,7.0,90,0.00,,,0.09,21.000000,,2013-05-01 16:31:00,
2013-05-01 10:40:00,25.0,21.0,-100.00,North,5,2.0,8.0,85,0.00,,,0.08,33.000000,,2013-05-01 16:40:00,
2013-05-01 11:02:00,25.0,21.0,-100.00,North,5,2.0,8.0,85,0.00,,,0.08,33.000000,,2013-05-01 17:02:00,
2013-05-01 11:12:00,25.0,21.0,-100.00,North,5,2.0,8.0,85,0.00,,,0.08,33.000000,,2013-05-01 17:12:00,
2013-05-01 11:21:00,25.0,21.0,-100.00,North,5,2.0,8.0,85,0.00,,,0.08,33.000000,,2013-05-01 17:21:00,
2013-05-01 11:31:00,25.0,21.0,-100.00,North,5,2.0,8.0,85,0.00,,,0.08,33.000000,,2013-05-01 17:31:00,
2013-05-01 12:01:00,31.0,19.0,-100.00,North,2,3.0,10.0,60,0.01,,,0.09,54.000000,,2013-05-01 18:01:00,
2013-05-01 12:32:00,31.0,19.0,-100.00,North,2,3.0,10.0,60,0.01,,,0.09,54.000000,,2013-05-01 18:32:00,
2013-05-01 13:02:00,34.0,18.0,-100.00,NNE,21,3.0,9.0,51,-99.99,,,0.11,65.000000,,2013-05-01 19:02:00,
2013-05-01 14:01:00,37.0,16.0,-100.00,North,353,2.0,9.0,42,-99.99,,,0.20,94.000000,,2013-05-01 20:01:00,
2013-05-01 15:01:00,39.0,17.0,-100.00,North,5,3.0,6.0,40,-99.99,,,0.41,239.000000,,2013-05-01 21:01:00,
2013-05-01 15:40:00,30.0,14.0,-100.00,NE,37,2.0,7.0,50,-99.99,,,0.45,517.000000,,2013-05-01 21:40:00,
2013-05-01 16:03:00,30.0,14.0,-100.00,NE,37,2.0,7.0,50,-99.99,,,0.45,517.000000,,2013-05-01 22:03:00,
2013-05-01 16:12:00,30.0,14.0,-100.00,NE,37,2.0,7.0,50,-99.99,,,0.45,517.000000,,2013-05-01 22:12:00,
2013-05-01 16:23:00,30.0,14.0,-100.00,NE,37,2.0,7.0,50,-99.99,,,0.45,517.000000,,2013-05-01 22:23:00,
2013-05-01 16:33:00,30.0,14.0,-100.00,NE,37,2.0,7.0,50,-99.99,,,0.45,517.000000,,2013-05-01 22:33:00,
2013-05-01 16:40:00,33.0,17.0,-100.00,NE,38,2.0,4.0,51,0.00,,,0.45,350.000000,,2013-05-01 22:40:00,
2013-05-01 17:02:00,33.0,17.0,-100.00,NE,38,2.0,4.0,51,0.00,,,0.45,350.000000,,2013-05-01 23:02:00,
2013-05-01 17:11:00,33.0,17.0,-100.00,NE,38,2.0,4.0,51,0.00,,,0.45,350.000000,,2013-05-01 23:11:00,
2013-05-01 17:21:00,33.0,17.0,-100.00,NE,38,2.0,4.0,51,0.00,,,0.45,350.000000,,2013-05-01 23:21:00,
2013-05-01 17:32:00,33.0,17.0,-100.00,NE,38,2.0,4.0,51,0.00,,,0.45,350.000000,,2013-05-01 23:32:00,
2013-05-01 17:40:00,29.0,13.0,-100.00,NE,52,1.0,5.0,50,0.00,,,0.45,433.000000,,2013-05-01 23:40:00,
2013-05-01 18:01:00,29.0,13.0,-100.00,NE,52,1.0,5.0,50,0.00,,,0.45,433.000000,,2013-05-02 00:01:00,
2013-05-01 18:11:00,29.0,13.0,-100.00,NE,52,1.0,5.0,50,0.00,,,0.45,433.000000,,2013-05-02 00:11:00,
2013-05-01 18:21:00,29.0,13.0,-100.00,NE,52,1.0,5.0,50,0.00,,,0.45,433.000000,,2013-05-02 00:21:00,
2013-05-01 18:32:00,29.0,13.0,-100.00,NE,52,1.0,5.0,50,0.00,,,0.45,433.000000,,2013-05-02 00:32:00,
2013-05-01 18:40:00,28.0,16.0,-100.00,NW,324,0.0,3.0,60,0.00,,,0.45,240.000000,,2013-05-02 00:40:00,
2013-05-01 19:01:00,28.0,16.0,-100.00,NW,324,0.0,3.0,60,0.00,,,0.45,240.000000,,2013-05-02 01:01:00,
2013-05-01 19:11:00,28.0,16.0,-100.00,NW,324,0.0,3.0,60,0.00,,,0.45,240.000000,,2013-05-02 01:11:00,
2013-05-01 19:21:00,28.0,16.0,-100.00,NW,324,0.0,3.0,60,0.00,,,0.45,240.000000,,2013-05-02 01:21:00,
2013-05-01 19:32:00,28.0,16.0,-100.00,NW,324,0.0,3.0,60,0.00,,,0.45,240.000000,,2013-05-02 01:32:00,
2013-05-01 19:40:00,24.0,13.0,-100.00,SSW,194,2.0,5.0,63,0.00,,,0.45,127.000000,,2013-05-02 01:40:00,
2013-05-01 20:01:00,24.0,13.0,-100.00,SSW,194,2.0,5.0,63,0.00,,,0.45,127.000000,,2013-05-02 02:01:00,
2013-05-01 20:11:00,24.0,13.0,-100.00,SSW,194,2.0,5.0,63,0.00,,,0.45,127.000000,,2013-05-02 02:11:00,
2013-05-01 20:21:00,24.0,13.0,-100.00,SSW,194,2.0,5.0,63,0.00,,,0.45,127.000000,,2013-05-02 02:21:00,
2013-05-01 20:32:00,24.0,13.0,-100.00,SSW,194,2.0,5.0,63,0.00,,,0.45,127.000000,,2013-05-02 02:32:00,
2013-05-01 20:40:00,18.0,13.0,-100.00,South,178,4.0,5.0,81,0.00,,,0.45,11.000000,,2013-05-02 02:40:00,
2013-05-01 21:01:00,18.0,13.0,-100.00,South,178,4.0,5.0,81,0.00,,,0.45,11.000000,,2013-05-02 03:01:00,
2013-05-01 21:11:00,18.0,13.0,-100.00,South,178,4.0,5.0,81,0.00,,,0.45,11.000000,,2013-05-02 03:11:00,
2013-05-01 21:22:00,18.0,13.0,-100.00,South,178,4.0,5.0,81,0.00,,,0.45,11.000000,,2013-05-02 03:22:00,
2013-05-01 21:32:00,18.0,13.0,-100.00,South,178,4.0,5.0,81,0.00,,,0.45,11.000000,,2013-05-02 03:32:00,
2013-05-01 21:40:00,18.0,14.0,-100.00,SSW,200,3.0,5.0,84,0.00,,,0.45,0.000000,,2013-05-02 03:40:00,
2013-05-01 22:03:00,18.0,14.0,-100.00,SSW,200,3.0,5.0,84,0.00,,,0.45,0.000000,,2013-05-02 04:03:00,
2013-05-01 22:12:00,18.0,14.0,-100.00,SSW,200,3.0,5.0,84,0.00,,,0.45,0.000000,,2013-05-02 04:12:00,
2013-05-01 22:22:00,18.0,14.0,-100.00,SSW,200,3.0,5.0,84,0.00,,,0.45,0.000000,,2013-05-02 04:22:00,
2013-05-01 22:33:00,18.0,14.0,-100.00,SSW,200,3.0,5.0,84,0.00,,,0.45,0.000000,,2013-05-02 04:33:00,
2013-05-01 22:40:00,18.0,13.0,-100.00,SW,221,7.0,10.0,81,0.00,,,0.45,0.000000,,2013-05-02 04:40:00,
2013-05-01 23:02:00,18.0,13.0,-100.00,SW,221,7.0,10.0,81,0.00,,,0.45,0.000000,,2013-05-02 05:02:00,
2013-05-01 23:12:00,18.0,13.0,-100.00,SW,221,7.0,10.0,81,0.00,,,0.45,0.000000,,2013-05-02 05:12:00,
2013-05-01 23:22:00,18.0,13.0,-100.00,SW,221,7.0,10.0,81,0.00,,,0.45,0.000000,,2013-05-02 05:22:00,
2013-05-01 23:32:00,18.0,13.0,-100.00,SW,221,7.0,10.0,81,0.00,,,0.45,0.000000,,2013-05-02 05:32:00,
2013-05-01 23:40:00,18.0,13.0,-100.00,SW,218,7.0,13.0,79,0.00,,,0.45,0.000000,,2013-05-02 05:40:00,